Other Public Products
Issued by NWS Grand Forks, ND

Home | Current Version | Previous Version | Text Only | Print | Product List | Glossary On
Versions: 1 2 3 4 5 6 7 8 9 10 11 12 13 14 15 16 17 18 19 20 21 22 23 24 25 26 27 28 29 30 31 32 33 34 35 36 37 38 39 40 41 42 43 44 45 46 47 48 49 50
000
FPUS83 KFGF 051431
OPUFGF
PRAIRIE TO PINES WEATHER ROUNDUP
NATIONAL WEATHER SERVICE EASTERN NORTH DAKOTA/GRAND FORKS ND
900 AM CDT SAT SEP 05 2015

 **SATELLITE DATA USED TO AUGMENT SKY COVER AT AUTOMATED STATIONS**
 *****  WEATHER ACROSS EASTERN NORTH DAKOTA  *****

CITY           SKY/WX    TMP DP  RH WIND       PRES   REMARKS
GRAND FORKS    FOG       64  63  96 N9        29.87S VSB 3/4
GRAND FORKS AF FOG       63  63 100 NE9       29.88S VSB 3/4
GRAND CITY NWS   N/A     63 N/A N/A N10         N/A
BUXTON         NOT AVBL
DEVILS LAKE    CLOUDY    61  55  82 N12       29.91F
FARGO          CLOUDY    71  68  90 NE5       29.84F
WAHPETON ARPT  SUNNY     75  68  78 S9        29.84R
$$

 *****  WEATHER ACROSS CENTRAL AND WESTERN NORTH DAKOTA  *****

CITY           SKY/WX    TMP DP  RH WIND       PRES   REMARKS
JAMESTOWN      FOG       67  66  97 NE12      29.87R VSB 1/2
BISMARCK       CLOUDY    68  67  96 E15G24    29.85R FOG
MINOT          RAIN      61  58  90 E7        29.90R FOG
MINOT AFB      LGT RAIN  59  59 100 SE13G29   29.89R
GARRISON         N/A     62  59  90 NE7       29.94R
WILLISTON      CLOUDY    59  57  93 N9        29.87R
DICKINSON      FOG       63  62  97 E20       29.82S VSB 1/4
HETTINGER      LGT RAIN  63  61  93 NE18G25   29.84S VSB 1/2
$$

 *****  OTHER OBSERVATIONS NORTHEAST NORTH DAKOTA  *****

CITY           SKY/WX    TMP DP  RH WIND       PRES   REMARKS
WALHALLA       FOG       61  61 100 MISG      29.96R VSB 1
LANGDON        FOG       61  61 100 N12       29.96F VSB 3/4
CAVALIER       FOG       63  63 100 NW8       29.93R VSB 1/2
GRAFTON        FOG       63  63 100 N10       29.90F VSB 1
CANDO          CLOUDY    59  59 100 NE10G18   29.96R
FORT TOTTEN      N/A     62  62 100 N7        29.95
ROLLA          CLOUDY    57  57 100 NE14      29.96F FOG
RUGBY          CLOUDY    61  57  88 E18       29.93S
 ***** THE ABOVE OBSERVATIONS ARE NON NWS ARE NOT QUALITY
        CONTROLLED AND MAY MIS-REPORT RAIN FOR SNOW...
$$

 *****  OTHER OBSERVATIONS SOUTHEAST NORTH DAKOTA *****

CITY           SKY/WX    TMP DP  RH WIND       PRES   REMARKS
COOPERSTOWN    NOT AVBL
VALLEY CITY    FOG       66  66 100 NE9G16    29.87S VSB<1/4
OAKES            N/A     68  68 100 NE9       29.83F FOG
GWINNER        CLOUDY    70  70 100 N7        29.84F
SHEYENNE NWR     N/A     69  69 100 N7        29.95S
BUFFALO        NOT AVBL
WYNDMERE         N/A     75  72  88 S6          N/A
 ***** THE ABOVE OBSERVATIONS ARE NON NWS ARE NOT QUALITY
       CONTROLLED AND MAY MIS-REPORT RAIN FOR SNOW...
$$

  *****  WEATHER ACROSS NORTHERN MINNESOTA  *****

CITY           SKY/WX    TMP DP  RH WIND       PRES   REMARKS
FLAG ISLAND    FOG       64  64 100 N3        29.91S VSB 3/4
WARROAD        CLOUDY    66  63  88 N3        29.91S
ROSEAU         PTSUNNY   66  61  82 N5        29.91R
HALLOCK        CLOUDY    64  63  94 CALM      29.89S FOG
THF RVR FALLS  CLOUDY    73  72  94 E8        29.88S
HALSTAD        NOT AVBL
FOSSTON        PTSUNNY   72  70  94 E3        29.89S
BAUDETTE       PTSUNNY   70  67  90 SE5       29.91S
WASKISH        CLOUDY    72  70  94 E3        29.91F
CROOKSTON      CLOUDY    72  70  94 E6        29.87F
$$
  *****  WEATHER ACROSS CENTRAL AND WEST MINNESOTA  *****

CITY           SKY/WX    TMP DP  RH WIND       PRES   REMARKS
BEMIDJI        CLOUDY    72  70  95 SE6       29.91S
PARK RAPIDS    PTSUNNY   75  69  81 SE7       29.90S
WADENA         SUNNY     75  70  83 S13       29.88S
DETROIT LAKES  SUNNY     73  70  88 SE8       29.88F
MOORHEAD       CLOUDY    73  70  88 NE5       29.85S
FERGUS FALLS   SUNNY     77  70  78 S13       29.84R
ELBOW LAKE     FAIR      75  71  86 S16       29.85S
MORRIS MN      SUNNY     77  72  83 SE14      29.84S
STAPLES        SUNNY     75  70  83 S8        29.89S
WHEATON        SUNNY     73  70  88 SE10      29.84F
$$
  *****  WEATHER ELSEWHERE ACROSS MINNESOTA  *****

CITY           SKY/WX    TMP DP  RH WIND       PRES   REMARKS
DULUTH         PTSUNNY   71  66  84 SE14      29.99F
INTRNTL FALLS  CLOUDY    69  67  93 SE6       29.94R
ELY            PTSUNNY   68  66  94 NE5       30.00R
CLOQUET        CLOUDY    66  63  88 SE6       29.98F
BRAINERD       PTSUNNY   76  70  82 S8        29.92S
HIBBING        PTSUNNY   72  69  90 SE7       29.96F
ALEXANDRIA     SUNNY     75  71  87 SE14      29.89S
SAINT CLOUD    MOSUNNY   75  70  84 S16G23    29.90S
MINNEAPOLIS    CLOUDY    75  70  84 S9        29.95F
$$

  *****  WEATHER ACROSS SOUTH DAKOTA  *****

CITY           SKY/WX    TMP DP  RH WIND       PRES   REMARKS
SIOUX FALLS    CLOUDY    74  69  85 S12       29.86S
BROOKINGS      PTSUNNY  N/A N/A N/A S14       29.86F
WATERTOWN      PTSUNNY   72  68  87 S10       29.84S
HURON          CLOUDY    72  68  87 SE10      29.78S
SISSETON         N/A     70  70 100 S6        29.83S
ABERDEEN       CLOUDY    72  69  90 NE7       29.82R
MITCHELL       CLOUDY    75  69  81 S10       29.80S
PIERRE         CLOUDY    71  67  87 CALM      29.78S
MOBRIDGE       CLOUDY    72  72 100 E13       29.76F FOG
RAPID CITY     CLOUDY    67  61  81 N6        29.83S
$$

  *****  SOME WEATHER IN NEARBY STATES *****

CITY           SKY/WX    TMP DP  RH WIND       PRES   REMARKS
GLASGOW MT     CLOUDY    53  48  83 NE8       29.91R
GREAT FALLS MT LGT RAIN  46  46 100 NE15      29.88F FOG
CHEYENNE WY    CLOUDY    68  45  43 W10       30.03R
SCOTTSBLUFF NE LGT RAIN  67  56  67 NW5       29.90R
OMAHA NE       MOSUNNY   78  70  76 S14       29.95R
DES MOINES IA  PTSUNNY   79  69  71 S9        30.01R
DAVENPORT IA   PTSUNNY   77  71  82 S6        30.07F
CHICAGO IL     PTSUNNY   73  66  78 S9        30.09S
EAU CLAIRE WI  MOSUNNY   73  68  84 SE6       30.00F
LA CROSSE WI   PTSUNNY   75  70  84 S7        30.01S
$$

  *****  SOME NATIONAL WEATHER *****

CITY           SKY/WX    TMP DP  RH WIND       PRES   REMARKS
LA GUARDIA NY  MOSUNNY   71  59  65 NE15      30.28R
RALEIGH NC     CLOUDY    74  69  85 NE9       30.17R
ATLANTA GA     MOSUNNY   76  66  71 E14G22    30.15R
NEW ORLEANS LA CLOUDY    81  76  84 CALM      30.04R
OKLAHOMA CITY  PTSUNNY   78  70  76 S9        30.02R
ALBUQUERQUE NM PTSUNNY   64  59  83 N3        30.18R
SALT LAKE CITY MOSUNNY   72  39  30 S18G24    29.87R
LOS ANGELES CA MOCLDY    65  59  81 E6        29.90R
BOISE ID       CLOUDY    49  39  68 CALM      30.00R
SEATTLE WA     PTCLDY    49  45  86 SE9       30.06R
$$

*** WEATHER ACROSS MANITOBA...SASKATCHEWAN AND ONTARIO ***
                ***ONTARIO***

CITY           SKY/WX    TMP DP  RH WIND       PRES   REMARKS
GERALDTON      CLOUDY    68  64  88 S10       30.04S
THUNDER BAY    CLOUDY    66  64  94 E7        30.01F
SIOUX LOOKOUT  PTSUNNY   72  68  88 SW8       29.93R
TORONTO        SUNNY     75  66  73 SE5       30.18S
BIG TROUT LK   LGT RAIN  64  63  94 E6        29.92R
PICKLE LAKE    CLOUDY    66  63  88 S13G20    29.89S
DRYDEN         SUNNY     70  66  88 SW10      29.93S
KENORA         CLOUDY    66  64  94 NW6       29.95R FOG
$$
                *** MANITOBA***

CITY           SKY/WX    TMP DP  RH WIND       PRES   REMARKS
BRANDON        PTSUNNY   57  55  94 NE16G25   29.91F
DAUPHIN        CLOUDY    57  54  88 W7        30.04R
ISLAND LAKE    LGT RAIN  55  55 100 NE7       29.98
PILOT MOUND      N/A     57  57 100 N12         N/A
THE PAS        CLOUDY    57  48  72 NE7G17    30.09S
THOMPSON       PTSUNNY   52  48  87 N8        30.09R
WINNIPEG       CLOUDY    64  63  94 N5        29.94R FOG
LYNN LAKE      MOSUNNY   46  45  93 N6        30.16R
CHURCHILL      CLOUDY    46  45  93 N7        30.14R
GILLAM         CLOUDY    50  48  93 NE9       30.08
$$
                ***SASKATCHEWAN***

CITY           SKY/WX    TMP DP  RH WIND       PRES   REMARKS
ESTEVAN        LGT RAIN  55  54  94 NE15      29.90F
KINDERSLEY     CLOUDY    46  43  87 NE8       30.09R
LLOYDMINSTER   CLOUDY    46  43  87 N6        30.16
PRINCE ALBERT  PTSUNNY   50  45  81 NE8       30.12S
REGINA         CLOUDY    52  50  93 E29       29.95F


USA.gov is the U.S. government's official web portal to all federal, state and local government web resources and services.